Regional Weather Roundup
Issued by NWS

Home | Current Version | Previous Version | Graphics & Text | Print | Product List | Glossary On
Versions: 1 2 3 4 5 6 7 8 9 10 11 12 13 14 15 16 17 18 19 20 21 22 23 24 25 26 27 28
000
ASUS45 KCYS 280810
RWRWY

WYOMING REGIONAL WEATHER ROUNDUP
NATIONAL WEATHER SERVICE CHEYENNE WY
200 AM MDT THU APR 28 2016

NOTE:  "FAIR" INDICATES FEW OR NO CLOUDS BELOW 12,000 FEET
WITH NO SIGNIFICANT WEATHER AND/OR OBSTRUCTIONS TO VISIBILITY.

WYZ001-280900-
YELLOWSTONE NATIONAL PARK

CITY           SKY/WX    TMP DP  RH WIND       PRES   REMARKS
LK YELLOWSTONE   N/A     30  22  72 CALM      29.89R
W YELLOWSTONE  NOT AVBL

$$
WYZ002>013-054>058-071-098>099-280900-
NORTHERN WYOMING

CITY           SKY/WX    TMP DP  RH WIND       PRES   REMARKS
JACKSON        FAIR      34  28  80 N13       29.83R WCI  25
CODY           MOCLDY    30  28  93 N7        29.96F WCI  23
GREYBULL       CLOUDY    37  28  70 NW12      29.95S WCI  29
WORLAND        CLOUDY    35  33  92 N5        29.96S WCI  31
SHERIDAN       LGT SNOW  33  32  96 NW6       29.99S FOG     WCI  28
BUFFALO        CLOUDY    30  29  96 NW7       29.96S WCI  23
GILLETTE       LGT SNOW  30  30 100 N7        29.96S FOG     WCI  23
HULETT         CLOUDY    32  30  93 N6        29.97S FOG     WCI  26
NEWCASTLE      PTSUNNY   32  30  93 N7        29.94S WCI  26

$$
WYZ014>020-022>026-101>103-280900-
CENTRAL WYOMING

CITY           SKY/WX    TMP DP  RH WIND       PRES   REMARKS
BIG PINEY      CLOUDY    33  28  81 SW5       29.87S WCI  29
PINEDALE       CLOUDY    32  32 100 CALM      29.87S
DUBOIS         CLOUDY    28  28 100 SE12G17   29.88S FOG     WCI  18
LANDER         CLOUDY    35  31  85 E6        29.91F WCI  30
RIVERTON       CLOUDY    36  31  82 E8        29.93S WCI  30
CASPER         CLOUDY    31  28  89 NE6       29.94S WCI  25
DOUGLAS        FLURRIES  33  30  88 NW10      29.94F WCI  25

$$
WYZ021-027>030-104>119-280900-
SOUTHERN WYOMING

CITY           SKY/WX    TMP DP  RH WIND       PRES   REMARKS
EVANSTON       FAIR      35  30  82 E16G25    29.76F WCI  25
KEMMERER         N/A     32  28  86 NE9       29.84F WCI  24
FORT BRIDGER   CLOUDY    34  34 100 E12       29.83F WCI  25
ROCK SPRINGS   CLOUDY    33  27  78 E17       29.86S WCI  22
DIXON          CLOUDY    34  28  80 NE7       29.86F WCI  28
RAWLINS        FAIR      28  25  88 NE7       29.89F WCI  21
SARATOGA       CLOUDY    30  30 100 W3        29.90S
LARAMIE        CLOUDY    25  23  92 CALM      29.90S
CHEYENNE       CLOUDY    30  27  88 N5        29.91R WCI  25
TORRINGTON     CLOUDY    35  30  82 NE5       29.92F WCI  31
PINE BLUFFS    FAIR      28  28 100 N3        29.91S

$$




USA.gov is the U.S. government's official web portal to all federal, state and local government web resources and services.